Guam Agana, GU

1:26 AM ChST on October 20, 2019 (GMT +1000)
Guam International

Weather History for PGUM - August, 2019

Change the Weather History Date:

Wednesday, August 21, 2019

  Actual Average Record
Temperature  
Mean Temperature 82 °F -  
Max Temperature 88 °F 84 °F 90 °F (2016)
Min Temperature 75 °F 75 °F 73 °F (2015)
Cooling Degree Days 16    
Growing Degree Days 32 (Base 50)    
Moisture  
Dew Point 74 °F    
Average Humidity 75    
Maximum Humidity 88    
Minimum Humidity 63    
Precipitation  
Precipitation 0.03 in - - ()
Sea Level Pressure  
Sea Level Pressure 29.83 in    
Wind  
Wind Speed 3 mph ()    
Max Wind Speed 9 mph    
Max Gust Speed -    
Visibility 9.7 miles    
Events Rain    
Averages and records for this station are not official NWS values.
T = Trace of Precipitation, MM = Missing Value Source: Averaged Metar Reports

Daily Weather History Graph

Daily Weather History Graph

Search for Another Location

Airport or City:

Astronomy

Aug. 21, 2019 Rise Set
Actual Time 6:08 AM ChST 6:39 PM ChST
Civil Twilight 5:46 AM ChST 7:01 PM ChST
Nautical Twilight 5:21 AM ChST 7:26 PM ChST
Astronomical Twilight 4:55 AM ChST 7:52 PM ChST
Moon 10:28 PM ChST (8/21) 10:20 AM ChST (8/21)
Length of Visible Light 13h 14m
Length of Day
12h 30m
Waning Gibbous, 74% of the Moon is Illuminated
Aug 21
Waning Gibbous
Aug 24
Last Quarter
Aug 30
New
Sep 6
First Quarter
Sep 14
Full

Hourly Weather History & Observations

Time (ChST) Temp. Heat Index Dew Point Humidity Pressure Visibility Wind Dir Wind Speed Gust Speed Precip Events Conditions
12:54 AM 78.1 °F - 73.0 °F 84% 29.82 in 10.0 mi Calm Calm - N/A   Clear
1:54 AM 77.0 °F - 73.0 °F 88% 29.81 in 10.0 mi Calm Calm - N/A   Clear
2:54 AM 77.0 °F - 72.0 °F 84% 29.80 in 10.0 mi Calm Calm - N/A   Clear
3:54 AM 75.9 °F - 72.0 °F 87% 29.79 in 10.0 mi Calm Calm - N/A   Clear
4:54 AM 75.9 °F - 72.0 °F 87% 29.80 in 10.0 mi Calm Calm - N/A   Clear
5:54 AM 77.0 °F - 72.0 °F 84% 29.81 in 10.0 mi Calm Calm - N/A   Clear
6:54 AM 79.0 °F - 73.9 °F 84% 29.83 in 10.0 mi Calm Calm - N/A   Clear
7:54 AM 82.9 °F 90.2 °F 75.0 °F 77% 29.86 in 10.0 mi Calm Calm - N/A   Clear
8:47 AM 84.0 °F 91.9 °F 75.0 °F 74% 29.90 in 10.0 mi Variable 3.5 mph - N/A   Mostly Cloudy
8:54 AM 84.0 °F 91.9 °F 75.0 °F 74% 29.87 in 10.0 mi West 4.6 mph - N/A   Partly Cloudy
9:03 AM 84.9 °F 93.3 °F 75.0 °F 72% 29.90 in 10.0 mi North 4.6 mph - N/A   Partly Cloudy
9:54 AM 87.1 °F 96.3 °F 75.0 °F 67% 29.87 in 10.0 mi West 9.2 mph - N/A   Partly Cloudy
10:54 AM 84.9 °F 92.1 °F 73.9 °F 69% 29.87 in 10.0 mi NNW 4.6 mph - N/A   Mostly Cloudy
11:43 AM 86.0 °F 93.0 °F 73.0 °F 65% 29.88 in 10.0 mi WNW 5.8 mph - N/A   Overcast
11:54 AM 84.9 °F 91.4 °F 73.0 °F 67% 29.85 in 10.0 mi NNW 5.8 mph - N/A   Overcast
12:54 PM 84.9 °F 92.1 °F 73.9 °F 69% 29.82 in 10.0 mi NNW 4.6 mph - N/A   Overcast
1:30 PM 86.0 °F 95.1 °F 75.0 °F 70% 29.83 in 10.0 mi Calm Calm - N/A   Mostly Cloudy
1:44 PM 86.0 °F 93.8 °F 73.9 °F 67% 29.82 in 10.0 mi WNW 5.8 mph - N/A   Overcast
1:54 PM 87.1 °F 96.3 °F 75.0 °F 67% 29.79 in 10.0 mi NNW 6.9 mph - N/A   Overcast
2:15 PM 88.0 °F 96.5 °F 73.9 °F 63% 29.81 in 10.0 mi NNW 4.6 mph - N/A   Scattered Clouds
2:54 PM 88.0 °F 97.5 °F 75.0 °F 65% 29.78 in 10.0 mi NNW 5.8 mph - N/A   Clear
3:54 PM 87.1 °F 95.4 °F 73.9 °F 65% 29.78 in 10.0 mi North 6.9 mph - N/A   Overcast
4:12 PM 84.0 °F 91.9 °F 75.0 °F 74% 29.80 in 8.0 mi North 5.8 mph - 0.00 in Rain Light Rain
4:54 PM 82.9 °F 90.8 °F 75.9 °F 79% 29.79 in 10.0 mi East 4.6 mph - 0.00 in   Overcast
5:04 PM 84.0 °F 91.9 °F 75.0 °F 74% 29.81 in 10.0 mi NNW 4.6 mph - N/A   Overcast
5:54 PM 82.9 °F 90.2 °F 75.0 °F 77% 29.81 in 2.5 mi NNW 3.5 mph - 0.00 in Rain Rain
6:09 PM 84.0 °F 91.9 °F 75.0 °F 74% 29.83 in 9.0 mi NNW 5.8 mph - 0.03 in Rain Light Rain
6:40 PM 82.9 °F 90.2 °F 75.0 °F 77% 29.84 in 10.0 mi North 9.2 mph - 0.03 in   Overcast
6:54 PM 82.0 °F 88.6 °F 75.0 °F 79% 29.82 in 10.0 mi North 8.1 mph - 0.03 in   Mostly Cloudy
7:54 PM 82.4 °F 89.5 °F 75.2 °F 79% 29.86 in 10.0 mi NNE 6.9 mph - N/A   Clear
8:54 PM 82.0 °F 88.6 °F 75.0 °F 79% 29.85 in 10.0 mi NE 5.8 mph - N/A   Partly Cloudy
9:54 PM 81.0 °F 87.3 °F 75.9 °F 85% 29.86 in 10.0 mi ENE 4.6 mph - N/A   Clear
10:54 PM 81.0 °F 87.3 °F 75.9 °F 85% 29.88 in 10.0 mi Calm Calm - N/A   Clear